User: anonymous   Login
Location: Antichan
(42.9728°N, 0.6667°E)
Time: 18:00:35
(UTC+00:00)
Language:

Cosmos 2322 Rocket - Orbit

View from above orbital plane
View from above orbital plane
View from above satellite
View from above satellite

Ground track
Ground track

The orbit data is extracted from the following two-line orbital elements,

1 23705U 95058B   20298.44735776  .00000185  00000-0  11981-3 0  9995
2 23705  71.0225 338.3075 0014344 235.7713 124.2051 14.15138332290523
Epoch (UTC): 24 October 2020 10:44:11
Eccentricity: 0.0014344
inclination: 71.0225°
perigee height: 831 km
apogee height: 852 km
right ascension of ascending node: 338.3075°
argument of perigee: 235.7713°
revolutions per day: 14.15138332
mean anomaly at epoch: 124.2051°
orbit number at epoch: 29052

The dashed part of the orbit path shows where the satellite is in the earth's shadow,  

DLR